Вернуться в каталог

COSMOS 252 DEB

АктивенLEO
NORAD 3559·DEBRIS·🇷🇺 Russia

Запущен Nov 1, 1968 с Baikonur Cosmodrome

Loading…

Ближайшие Пролёты (ближайшие 24 часа)

TLE

СвежийSource: Space-Track

Эпоха: Sep 14, 2026, 12:07 UTC

1 03559U 68097M   26257.50505801  .00000946  00000-0  22478-3 0  9993
2 03559  62.2951  88.2020 0438388 283.7351  71.5277 14.14690003856525

Отслеживайте COSMOS 252 DEB в реальном времени с AllMySat

Download on the App Store